Location: Unspecified
(0.0000°N, 0.0000°E)
Time: 03:39:07
(UTC+00:00)

BlueWalker 3 - Pass Details

Date: 25 January 2023
Orbit: 499 x 517 km, 53.2° (Epoch: 27 January)

Event Time Altitude Azimuth Distance (km) Brightness Sun altitude
Exits shadow 04:26:29 34° 177° (S) 860 3.2 -24.9°
Drops below altitude 10° 04:28:56 10° 158° (SSE) 1,736 5.2 -24.3°
Sets 04:31:10 0° 154° (SSE) 2,622 6.3 -23.8°
